Date String (YYYY-MM-DD hh:mm:ss) UTC,Instrument flags,Ambient pressure (hPa),Sample flow (lpm),Bypass flow (lpm),Sample temperature (°C),Ambient temperature (°C),ASC tube jacket temperature (°C),LED temperature (°C),Box temperature (°C),Sample RH (%),Span deviation,Mass concentration (μg/m³),Mass concentration (μg/m³),Mass concentration (μg/m³)
DateTimeUTC,F1_M11,P_M11,Q1_M11,Q2_M11,T1_M11,T2_M11,T3_M11,T4_M11,T5_M11,U1_M11,ZSPAN_M11,X0_M11,X2_M11,X1_M11
2022-12-14 01:00:00,,0812.3,5.00,0.00,21.4,19.7,00.0,30.2,23.1,10.2,0000.3,0027.09,0007.33,0005.22
2022-12-14 01:01:00,,0812.4,5.00,0.00,21.3,19.6,00.0,30.2,23.0,10.2,-000.3,0028.81,0007.43,0005.23
2022-12-14 01:02:00,,0812.4,4.99,0.00,21.3,19.4,00.0,30.2,23.0,10.2,-000.1,0028.06,0007.47,0005.24
2022-12-14 01:03:00,,0812.4,4.99,0.00,21.3,19.3,00.0,30.1,22.9,10.3,0000.3,0027.07,0007.48,0005.23
2022-12-14 01:04:00,,0812.4,5.03,0.00,21.2,19.2,00.0,30.1,22.8,10.3,0000.2,0027.96,0007.49,0005.24
2022-12-14 01:05:00,,0812.4,4.96,0.00,21.2,19.6,00.0,30.1,22.9,10.4,-000.4,0028.82,0007.48,0005.25
2022-12-14 01:06:00,,0812.4,5.03,0.00,21.3,20.9,00.0,30.1,23.1,10.3,-000.3,0029.22,0007.48,0005.26
2022-12-14 01:07:00,,0812.4,4.97,0.00,21.4,21.6,00.0,30.1,23.3,10.3,-000.0,0029.51,0007.51,0005.27
2022-12-14 01:08:00,,0812.4,5.02,0.00,21.4,21.2,00.0,30.2,23.3,10.3,0000.0,0031.08,0007.58,0005.29
2022-12-14 01:09:00,,0812.4,4.98,0.00,21.4,20.7,00.0,30.2,23.2,10.3,-000.2,0030.51,0007.60,0005.31
2022-12-14 01:10:00,,0812.3,5.01,0.00,21.4,20.3,00.0,30.2,23.1,10.3,0000.0,0030.11,0007.65,0005.32
2022-12-14 01:11:00,,0812.3,5.00,0.00,21.4,19.9,00.0,30.2,23.0,10.3,-000.1,0030.21,0007.68,0005.35
2022-12-14 01:12:00,,0812.3,5.00,0.00,21.3,19.6,00.0,30.2,22.9,10.4,0000.1,0028.85,0007.65,0005.36
2022-12-14 01:13:00,,0812.3,5.00,0.00,21.3,19.3,00.0,30.1,22.8,10.4,0000.3,0028.75,0007.62,0005.35
2022-12-14 01:14:00,,0812.2,4.99,0.00,21.2,19.1,00.0,30.1,22.8,10.5,-000.1,0028.86,0007.68,0005.37
2022-12-14 01:15:00,,0812.2,5.04,0.00,21.2,18.9,00.0,30.1,22.7,10.5,0000.4,0027.35,0007.68,0005.38
2022-12-14 01:16:00,,0812.2,4.96,0.00,21.1,18.7,00.0,30.1,22.6,10.6,0001.2,0026.80,0007.68,0005.39
2022-12-14 01:17:00,,0812.2,5.01,0.00,21.1,19.6,00.0,30.0,22.7,10.6,0001.5,0026.22,0007.70,0005.40
2022-12-14 01:18:00,,0812.2,4.99,0.00,21.2,21.0,00.0,30.0,23.0,10.5,0001.8,0026.19,0007.71,0005.43
2022-12-14 01:19:00,,0812.2,5.02,0.00,21.3,21.3,00.0,30.0,23.1,10.5,0002.3,0025.43,0007.72,0005.44
2022-12-14 01:20:00,,0812.2,4.98,0.00,21.3,20.8,00.0,30.1,23.1,10.5,0002.5,0024.20,0007.68,0005.46
2022-12-14 01:21:00,,0812.1,5.01,0.00,21.3,20.3,00.0,30.1,23.0,10.5,0002.7,0023.56,0007.69,0005.47
2022-12-14 01:22:00,,0812.1,5.01,0.00,21.3,19.9,00.0,30.1,22.9,10.5,0002.1,0023.71,0007.71,0005.48
2022-12-14 01:23:00,,0812.1,5.00,0.00,21.2,19.6,00.0,30.1,22.8,10.5,0002.5,0024.00,0007.77,0005.49
2022-12-14 01:24:00,,0812.1,5.00,0.00,21.1,19.3,00.0,30.1,22.7,10.5,0002.4,0023.83,0007.81,0005.51
2022-12-14 01:25:00,,0812.2,5.00,0.00,21.1,19.0,00.0,30.0,22.6,10.6,0001.6,0024.02,0007.78,0005.53
2022-12-14 01:26:00,,0812.2,4.99,0.00,21.0,18.8,00.0,30.0,22.5,10.6,0001.2,0023.75,0007.84,0005.58
2022-12-14 01:27:00,,0812.2,4.99,0.00,21.0,19.4,00.0,30.0,22.6,10.6,0001.7,0023.03,0007.90,0005.61
2022-12-14 01:28:00,,0812.1,5.03,0.00,21.1,20.8,00.0,29.9,22.9,10.6,0001.3,0023.43,0008.00,0005.66
2022-12-14 01:29:00,,0812.1,4.96,0.00,21.2,21.3,00.0,30.0,23.1,10.5,0001.0,0024.35,0008.06,0005.67
2022-12-14 01:30:00,,0812.0,5.03,0.00,21.2,20.8,00.0,30.0,23.0,10.5,0000.5,0024.12,0008.11,0005.70
2022-12-14 01:31:00,,0812.1,4.97,0.00,21.2,20.3,00.0,30.0,22.9,10.5,-000.3,0024.58,0008.16,0005.74
2022-12-14 01:32:00,,0812.1,5.01,0.00,21.1,19.8,00.0,30.0,22.8,10.5,-000.7,0025.59,0008.13,0005.75
2022-12-14 01:33:00,,0812.1,5.02,0.00,21.1,19.4,00.0,30.0,22.6,10.5,0000.2,0025.95,0008.18,0005.78
2022-12-14 01:34:00,,0812.1,4.95,0.00,21.0,19.1,00.0,30.0,22.6,10.5,-000.0,0024.75,0008.18,0005.80
2022-12-14 01:35:00,,0812.1,5.05,0.00,21.0,18.9,00.0,29.9,22.5,10.5,-000.3,0025.04,0008.19,0005.83
2022-12-14 01:36:00,,0812.0,4.95,0.00,20.9,18.8,00.0,29.9,22.4,10.6,-000.1,0025.52,0008.24,0005.85
2022-12-14 01:37:00,,0812.0,5.03,0.00,20.9,19.2,00.0,29.9,22.5,10.6,0000.2,0027.57,0008.32,0005.87
2022-12-14 01:38:00,,0812.0,4.95,0.00,21.0,20.6,00.0,29.9,22.8,10.6,0000.6,0027.61,0008.38,0005.90
2022-12-14 01:39:00,,0812.0,5.04,0.00,21.1,21.4,00.0,29.9,23.0,10.5,0000.3,0028.00,0008.45,0005.92
2022-12-14 01:40:00,,0812.0,4.97,0.00,21.2,21.0,00.0,29.9,23.0,10.5,0000.6,0029.02,0008.42,0005.96
2022-12-14 01:41:00,,0812.0,5.01,0.00,21.2,20.4,00.0,30.0,22.9,10.5,0000.9,0028.07,0008.38,0005.97
2022-12-14 01:42:00,,0812.0,4.97,0.00,21.2,20.0,00.0,30.0,22.8,10.5,0001.6,0027.91,0008.42,0005.98
2022-12-14 01:43:00,,0812.1,5.01,0.00,21.1,19.7,00.0,29.9,22.8,10.5,0001.6,0027.53,0008.42,0006.01
2022-12-14 01:44:00,,0812.1,5.01,0.00,21.1,19.4,00.0,29.9,22.7,10.5,0001.3,0027.76,0008.43,0006.01
2022-12-14 01:45:00,,0812.1,4.99,0.00,21.0,19.2,00.0,29.9,22.6,10.5,0001.9,0029.07,0008.44,0006.02
2022-12-14 01:46:00,,0812.1,5.03,0.00,21.0,19.0,00.0,29.9,22.5,10.6,0002.1,0028.85,0008.46,0006.04
2022-12-14 01:47:00,,0812.0,4.96,0.00,20.9,18.8,00.0,29.9,22.4,10.6,0002.4,0029.30,0008.45,0006.04
2022-12-14 01:48:00,,0812.1,5.06,0.00,20.9,19.0,00.0,29.9,22.5,10.6,0002.2,0029.08,0008.49,0006.06
2022-12-14 01:49:00,,0812.1,4.97,0.00,21.0,20.4,00.0,29.9,22.7,10.6,0002.0,0029.14,0008.52,0006.05
2022-12-14 01:50:00,,0812.1,5.02,0.00,21.1,21.4,00.0,29.9,23.0,10.6,0001.8,0028.75,0008.45,0006.07
2022-12-14 01:51:00,,0812.1,4.99,0.00,21.2,21.0,00.0,29.9,23.0,10.5,0001.8,0028.22,0008.53,0006.08
2022-12-14 01:52:00,,0812.0,5.01,0.00,21.2,20.4,00.0,29.9,22.9,10.5,0001.7,0028.66,0008.62,0006.13
2022-12-14 01:53:00,,0812.0,4.97,0.00,21.1,19.9,00.0,29.9,22.7,10.5,0001.5,0028.85,0008.61,0006.17
2022-12-14 01:54:00,,0812.1,5.01,0.00,21.1,19.4,00.0,29.9,22.6,10.5,0002.2,0028.77,0008.69,0006.19
2022-12-14 01:55:00,,0812.0,5.01,0.00,21.0,19.1,00.0,29.9,22.5,10.5,0001.4,0027.68,0008.74,0006.19
2022-12-14 01:56:00,,0812.1,5.00,0.00,21.0,18.9,00.0,29.9,22.5,10.4,0001.0,0025.79,0008.74,0006.18
2022-12-14 01:57:00,,0812.1,5.02,0.00,20.9,18.7,00.0,29.9,22.4,10.4,0001.5,0025.67,0008.71,0006.16
2022-12-14 01:58:00,,0812.1,4.98,0.00,20.9,19.5,00.0,29.8,22.5,10.4,0001.6,0025.05,0008.71,0006.13
2022-12-14 01:59:00,,0812.0,5.03,0.00,21.0,20.9,00.0,29.8,22.8,10.4,0000.9,0024.50,0008.61,0006.09
